Erzurum, Turkey

5:24 AM EEST on August 24, 2016 (GMT +0300)
Erzurum

Weather History for LTCE - November, 2013

Change the Weather History Date:

Monday, November 4, 2013

  Actual Average Record
Temperature  
Mean Temperature 38 °F -  
Max Temperature 58 °F 42 °F 59 °F (1998)
Min Temperature 18 °F 26 °F 12 °F (1999)
Degree Days  
Heating Degree Days 27    
Moisture  
Dew Point 17 °F    
Average Humidity 53    
Maximum Humidity 93    
Minimum Humidity 4    
Precipitation  
Precipitation 0.00 in 0.05 in - ()
Sea Level Pressure  
Sea Level Pressure 30.27 in    
Wind  
Wind Speed 3 mph ()    
Max Wind Speed 16 mph    
Max Gust Speed -    
Visibility 12.0 miles    
Events      
Averages and records for this station are not official NWS values.
T = Trace of Precipitation, MM = Missing Value Source: Averaged Metar Reports

Daily Weather History Graph

Daily Weather History Graph

Search for Another Location

Airport or City:

Trip Planner

Search our weather history database for the weather conditions in past years. The results will help you decide how hot, cold, wet, or windy it might be!

Date:

Astronomy

Nov. 04, 2013 Rise Set
Actual Time 5:47 AM EET 4:09 PM EET
Civil Twilight 5:19 AM EET 4:37 PM EET
Nautical Twilight 4:47 AM EET 5:09 PM EET
Astronomical Twilight 4:15 AM EET 5:41 PM EET
Moon 6:33 AM EET (11/4) 4:55 PM EET (11/4)
Length of Visible Light 11h 18m
Length of Day
10h 22m
New Moon, 1% of the Moon is Illuminated
Nov 4
New Moon
Nov 10
First Quarter
Nov 17
Full
Nov 25
Last Quarter
Dec 3
New

Hourly Weather History & Observations

Time (EET) Temp. Windchill Dew Point Humidity Pressure Visibility Wind Dir Wind Speed Gust Speed Precip Events Conditions
12:20 AM 28.4 °F - 19.4 °F 69% 30.24 in - Calm Calm - N/A   Clear
12:50 AM 24.8 °F - 19.4 °F 80% 30.24 in - Variable 2.3 mph - N/A   Clear
1:20 AM 24.8 °F - 17.6 °F 74% 30.24 in - Calm Calm - N/A   Clear
1:50 AM 24.8 °F - 19.4 °F 80% 30.24 in - SSW 2.3 mph - N/A   Clear
2:00 AM 25 °F - 19 °F 68%  in 12 mi SSW 2.3 mph - -  
2:20 AM 24.8 °F 20.5 °F 19.4 °F 80% 30.24 in - WSW 3.5 mph - N/A   Clear
2:50 AM 23.0 °F - 17.6 °F 80% 30.24 in - Variable 1.2 mph - N/A   Clear
3:20 AM 21.2 °F - 17.6 °F 86% 30.24 in - Variable 1.2 mph - N/A   Clear
3:50 AM 19.4 °F - 14.0 °F 80% 30.24 in - Calm Calm - N/A   Clear
4:20 AM 19.4 °F - 15.8 °F 86% 30.27 in - Calm Calm - N/A   Clear
4:50 AM 21.2 °F - 17.6 °F 86% 30.27 in - Calm Calm - N/A   Clear
5:20 AM 17.6 °F - 15.8 °F 93% 30.27 in - Variable 2.3 mph - N/A   Clear
5:50 AM 17.6 °F - 15.8 °F 93% 30.27 in - SE 2.3 mph - N/A   Clear
6:20 AM 21.2 °F - 17.6 °F 86% 30.27 in - Calm Calm - N/A   Clear
6:50 AM 23.0 °F - 19.4 °F 86% 30.30 in - Calm Calm - N/A   Clear
7:20 AM 28.4 °F - 23.0 °F 80% 30.30 in - Calm Calm - N/A   Clear
7:50 AM 33.8 °F 29.6 °F 23.0 °F 65% 30.30 in - WSW 4.6 mph - N/A   Clear
8:00 AM 33 °F - 23 °F 55%  in 12 mi Calm Calm - -  
8:20 AM 37.4 °F - 23.0 °F 56% 30.30 in - Variable 1.2 mph - N/A   Clear
8:50 AM 41.0 °F - 24.8 °F 53% 30.30 in - Variable 1.2 mph - N/A   Clear
9:20 AM 44.6 °F - 24.8 °F 46% 30.30 in - Variable 1.2 mph - N/A   Clear
9:50 AM 48.2 °F - 23.0 °F 37% 30.30 in - Variable 2.3 mph - N/A   Clear
10:20 AM 50.0 °F - 23.0 °F 35% 30.30 in - WNW 4.6 mph - N/A   Clear
10:50 AM 51.8 °F - 23.0 °F 33% 30.27 in - West 9.2 mph - N/A   Clear
11:20 AM 55.4 °F - 21.2 °F 26% 30.27 in - West 9.2 mph - N/A   Clear
11:50 AM 55.4 °F - 21.2 °F 26% 30.24 in - WSW 10.4 mph - N/A   Clear
12:20 PM 55.4 °F - 15.8 °F 21% 30.24 in - West 13.8 mph - N/A   Clear
12:50 PM 57.2 °F - 10.4 °F 16% 30.24 in - West 13.8 mph - N/A   Clear
1:20 PM 57.2 °F - 8.6 °F 14% 30.24 in - West 15.0 mph - N/A   Clear
1:50 PM 57.2 °F - 6.8 °F 13% 30.24 in - West 16.1 mph - N/A   Clear
2:00 PM 58 °F - 3 °F 4%  in 12 mi West 16.1 mph - -  
2:20 PM 57.2 °F - 12.2 °F 17% 30.24 in - West 16.1 mph - N/A   Clear
2:50 PM 57.2 °F - 14.0 °F 18% 30.24 in - West 15.0 mph - N/A   Clear
3:20 PM 55.4 °F - 14.0 °F 20% 30.24 in - West 13.8 mph - N/A   Clear
3:50 PM 51.8 °F - 14.0 °F 22% 30.24 in - West 10.4 mph - N/A   Clear
4:20 PM 48.2 °F - 14.0 °F 25% 30.24 in - SW 5.8 mph - N/A   Clear
4:50 PM 44.6 °F 43.1 °F 12.2 °F 27% 30.27 in - South 3.5 mph - N/A   Clear
5:20 PM 44.6 °F 42.2 °F 15.8 °F 31% 30.27 in - SSW 4.6 mph - N/A   Clear
5:50 PM 41.0 °F 38.0 °F 15.8 °F 36% 30.27 in - West 4.6 mph - N/A   Clear
6:20 PM 39.2 °F 35.9 °F 15.8 °F 39% 30.27 in - WSW 4.6 mph - N/A   Clear
6:50 PM 39.2 °F 35.0 °F 15.8 °F 39% 30.30 in - SW 5.8 mph - N/A   Clear
7:20 PM 33.8 °F 29.6 °F 14.0 °F 44% 30.30 in - WSW 4.6 mph - N/A   Clear
7:50 PM 32.0 °F - 15.8 °F 51% 30.30 in - Calm Calm - N/A   Clear
8:00 PM 33 °F - 15 °F 33%  in 12 mi Calm Calm - -  
8:20 PM 30.2 °F 26.7 °F 15.8 °F 55% 30.30 in - South 3.5 mph - N/A   Clear
8:50 PM 30.2 °F 26.7 °F 17.6 °F 60% 30.33 in - SE 3.5 mph - N/A   Clear
9:20 PM 26.6 °F 22.6 °F 14.0 °F 59% 30.33 in - WSW 3.5 mph - N/A   Clear
9:50 PM 28.4 °F - 15.8 °F 59% 30.33 in - Calm Calm - N/A   Clear
10:20 PM 24.8 °F 20.5 °F 14.0 °F 64% 30.33 in - WNW 3.5 mph - N/A   Clear
10:50 PM 23.0 °F - 15.8 °F 74% 30.33 in - Variable 2.3 mph - N/A   Clear
11:20 PM 21.2 °F - 14.0 °F 74% 30.33 in - Calm Calm - N/A   Clear
11:50 PM 21.2 °F - 15.8 °F 80% 30.33 in - Calm Calm - N/A   Clear